Fort Polk, LA

10:34 PM CDT on May 20, 2018 (GMT -0500)
Fort Polk

Weather History for KDNK - December, 2012

Change the Weather History Date:

Sunday, December 23, 2012

  Actual Average (KPOE) Record (KPOE)
Temperature  
Mean Temperature 59 °F -  
Max Temperature 66 °F 56 °F 79 °F (2015)
Min Temperature 52 °F 36 °F 28 °F (1998)
Degree Days  
Heating Degree Days 6    
Growing Degree Days 9 (Base 50)    
Moisture  
Dew Point 57 °F    
Average Humidity 81    
Maximum Humidity 88    
Minimum Humidity 66    
Precipitation  
Precipitation 0.07 in - - ()
Sea Level Pressure  
Sea Level Pressure 29.97 in    
Wind  
Wind Speed 9 mph (South)    
Max Wind Speed 13 mph    
Max Gust Speed 20 mph    
Visibility 10 miles    
Events Rain    
Averages and records for this station are not official NWS values.
T = Trace of Precipitation, MM = Missing Value Source: NWS Daily Summary

Daily Weather History Graph

Daily Weather History Graph

Search for Another Location

Airport or City:

Astronomy

Dec. 23, 2012 Rise Set
Actual Time 7:07 AM CST 5:15 PM CST
Civil Twilight 6:40 AM CST 5:41 PM CST
Nautical Twilight 6:10 AM CST 6:12 PM CST
Astronomical Twilight 5:41 AM CST 6:41 PM CST
Moon 1:59 PM CST (12/23) 2:58 AM CST (12/23)
Length of Visible Light 11h 01m
Length of Day
10h 07m
Waxing Gibbous, 82% of the Moon is Illuminated
Dec 23
Waxing Gibbous
Dec 28
Full
Jan 4
Last Quarter
Jan 11
New
Jan 18
First Quarter

Hourly Weather History & Observations

Time (CST) Temp. Dew Point Humidity Pressure Visibility Wind Dir Wind Speed Gust Speed Precip Events Conditions
12:53 AM 52.0 °F 41.0 °F 66% 30.15 in 10.0 mi South 8.1 mph - N/A   Overcast
1:53 AM 53.1 °F 43.0 °F 69% 30.13 in 10.0 mi South 9.2 mph - N/A   Overcast
2:53 AM 53.1 °F 45.0 °F 74% 30.12 in 10.0 mi SSE 8.1 mph - N/A   Overcast
3:53 AM 53.1 °F 45.0 °F 74% 30.11 in 10.0 mi SSE 8.1 mph - N/A   Overcast
4:53 AM 54.0 °F 46.9 °F 77% 30.09 in 10.0 mi SSE 9.2 mph - N/A   Overcast
5:53 AM 54.0 °F 48.0 °F 80% 30.09 in 10.0 mi SSE 6.9 mph - N/A   Overcast
6:53 AM 55.0 °F 48.9 °F 80% 30.09 in 10.0 mi SSE 8.1 mph - N/A   Overcast
7:53 AM 55.0 °F 50.0 °F 83% 30.09 in 10.0 mi SSE 6.9 mph - N/A   Overcast
8:53 AM 55.0 °F 51.1 °F 86% 30.09 in 10.0 mi SSE 8.1 mph - 0.00 in   Overcast
9:53 AM 57.0 °F 53.1 °F 87% 30.08 in 10.0 mi SE 9.2 mph - 0.00 in Rain Light Rain
10:53 AM 61.0 °F 54.0 °F 78% 30.06 in 10.0 mi South 10.4 mph - 0.00 in   Overcast
11:53 AM 64.9 °F 57.0 °F 75% 30.02 in 10.0 mi South 9.2 mph - 0.01 in   Overcast
12:53 PM 66.9 °F 57.9 °F 73% 29.97 in 10.0 mi South 9.2 mph - N/A   Overcast
1:08 PM 66.2 °F 57.2 °F 73% 29.96 in 10.0 mi South 9.2 mph - N/A   Overcast
1:53 PM 64.9 °F 61.0 °F 87% 29.94 in 7.0 mi SW 6.9 mph - 0.04 in Rain Light Rain
2:05 PM 64.4 °F 60.8 °F 88% 29.94 in 8.0 mi SSW 5.8 mph - 0.02 in Rain Light Rain
2:53 PM 66.9 °F 62.1 °F 84% 29.92 in 10.0 mi South 11.5 mph 19.6 mph 0.02 in   Mostly Cloudy
3:02 PM 66.2 °F 62.6 °F 88% 29.92 in 10.0 mi South 9.2 mph 19.6 mph N/A   Mostly Cloudy
3:13 PM 66.2 °F 60.8 °F 83% 29.92 in 10.0 mi South 11.5 mph 17.3 mph N/A   Overcast
3:53 PM 66.9 °F 61.0 °F 81% 29.91 in 10.0 mi South 11.5 mph - N/A   Overcast
4:06 PM 66.2 °F 60.8 °F 83% 29.90 in 10.0 mi South 12.7 mph 18.4 mph N/A   Mostly Cloudy
4:17 PM 66.2 °F 60.8 °F 83% 29.91 in 10.0 mi SSW 10.4 mph - N/A   Overcast
4:32 PM 66.2 °F 60.8 °F 83% 29.90 in 10.0 mi SSW 10.4 mph - N/A   Overcast
4:39 PM 66.2 °F 60.8 °F 83% 29.90 in 10.0 mi SSW 10.4 mph - N/A   Overcast
4:53 PM 66.9 °F 60.1 °F 79% 29.91 in 10.0 mi SSW 9.2 mph - N/A   Overcast
5:01 PM 66.2 °F 60.8 °F 83% 29.90 in 10.0 mi South 8.1 mph - N/A   Overcast
5:53 PM 66.9 °F 60.1 °F 79% 29.90 in 10.0 mi South 9.2 mph - N/A   Overcast
6:32 PM 66.2 °F 60.8 °F 83% 29.90 in 10.0 mi South 8.1 mph - N/A   Overcast
6:53 PM 66.9 °F 60.1 °F 79% 29.90 in 10.0 mi South 9.2 mph - N/A   Overcast
7:20 PM 66.2 °F 60.8 °F 83% 29.91 in 10.0 mi SSW 8.1 mph - N/A   Overcast
7:53 PM 66.0 °F 61.0 °F 84% 29.91 in 10.0 mi SSW 6.9 mph 16.1 mph N/A   Overcast
8:53 PM 66.0 °F 61.0 °F 84% 29.90 in 10.0 mi South 8.1 mph - N/A   Overcast
9:02 PM 66.2 °F 62.6 °F 88% 29.91 in 10.0 mi SSW 8.1 mph 18.4 mph N/A   Overcast
9:53 PM 66.0 °F 62.1 °F 87% 29.93 in 10.0 mi SW 5.8 mph - N/A   Overcast
10:53 PM 66.0 °F 62.1 °F 87% 29.90 in 10.0 mi South 9.2 mph - N/A   Mostly Cloudy
11:43 PM 66.2 °F 62.6 °F 88% 29.90 in 10.0 mi SSW 5.8 mph - N/A   Overcast
11:53 PM 66.0 °F 62.1 °F 87% 29.89 in 10.0 mi SSW 9.2 mph - N/A   Overcast